Wind_Speed
42 43 44 44 47 52 55 54 59 62 63 60 68 72 71 69 71 67 68 69 74 68 54 60 57 60 58 51 61 50 53 57
43 48 53 53 55 59 65 67 67 70 72 76 78 86 86 79 81 76 72 78 73 73 70 65 62 61 63 59 63 63 57 68
53 47 50 56 59 68 72 74 75 78 80 88 90 91 96 97 96 85 77 81 79 78 69 68 69 61 69 67 68 65 63 62
59 63 72 73 64 68 72 75 81 83 90 94 96 101 105 105 103 87 75 80 84 87 84 81 78 71 73 73 74 72 70 69
68 73 79 78 81 85 84 88 91 92 99 103 108 108 112 114 91 82 81 81 83 88 89 86 80 74 74 73 63 72 74 78
72 72 75 85 86 86 90 95 96 100 108 113 114 119 123 118 95 84 83 89 89 86 95 92 89 77 82 79 75 66 72 73
75 80 82 85 86 88 99 100 106 110 115 116 121 125 130 105 92 97 96 96 97 95 96 84 86 83 79 80 84 79 61 77
88 88 90 93 96 99 105 110 114 118 120 122 127 124 120 100 99 103 104 100 103 106 105 103 102 95 95 98 96 89 66 80
94 94 96 100 104 109 119 118 121 123 122 131 124 123 109 101 102 104 106 104 105 106 109 106 107 102 90 90 90 77 69 82
101 106 108 115 118 126 119 125 125 121 131 111 105 105 105 99 99 104 103 100 104 103 101 80 96 90 87 86 86 74 74 82
116 119 125 139 124 127 125 124 119 122 112 102 100 103 96 97 94 97 100 93 103 93 95 101 108 88 85 89 88 78 79 87
131 141 138 119 129 129 118 117 119 107 101 97 96 95 98 97 88 88 105 97 98 99 99 98 110 100 99 99 93 85 88 93
146 134 131 133 132 114 107 113 102 96 85 84 87 89 92 93 98 96 101 100 98 103 108 111 115 108 101 102 99 97 92 103
146 136 134 134 116 105 99 96 91 88 83 79 73 69 74 80 83 87 92 94 93 94 96 98 104 105 104 103 101 100 97 106
144 137 133 114 103 97 93 89 86 78 72 69 67 66 67 68 68 71 74 78 79 81 86 86 87 89 91 103 104 95 98 103
135 127 106 97 92 89 84 80 72 65 61 59 57 58 61 63 63 65 66 68 68 69 71 75 78 83 83 87 98 97 95 111
114 100 92 86 80 77 74 70 63 57 56 56 57 57 57 58 58 57 59 58 59 60 60 62 65 69 75 78 86 93 94 115
92 84 80 77 73 68 66 64 59 55 52 51 51 50 51 51 52 51 51 51 52 53 54 54 57 60 66 71 73 84 92 104
79 74 71 68 65 62 59 59 54 49 47 46 45 45 45 46 46 46 47 48 48 48 47 48 49 51 57 63 68 73 87 96
Wind_Direction
293 293 296 292 290 289 298 291 293 301 298 299 301 309 301 300 297 292 294 295 289 286 278 277 272 270 260 253 240 244 246 252
280 281 284 291 291 299 297 298 300 299 292 300 302 307 310 302 299 299 290 288 285 285 280 269 258 256 254 244 234 240 244 243
287 288 286 288 288 289 293 295 297 298 295 299 303 304 304 303 301 295 289 283 284 278 272 271 263 253 244 248 238 243 238 247
283 287 293 292 285 284 291 288 290 292 292 294 296 300 301 298 296 292 284 285 280 282 277 273 268 257 243 243 242 245 237 242
285 285 287 288 285 285 283 287 289 288 293 291 293 294 302 303 294 288 278 279 277 278 277 278 270 254 247 235 244 246 241 240
286 283 285 289 289 287 288 290 290 290 292 290 293 295 298 298 286 279 273 273 273 271 274 271 270 263 251 250 256 251 240 244
298 294 291 288 289 290 291 289 291 290 290 289 293 292 294 290 279 274 273 270 272 271 270 265 268 265 261 253 260 261 260 240
302 300 300 298 297 296 293 290 289 289 289 292 290 289 290 278 273 270 269 267 268 271 266 264 265 261 260 259 262 264 256 231
304 301 299 299 297 297 300 296 296 291 287 291 287 286 280 272 269 266 265 265 261 259 265 265 264 264 264 264 263 262 246 232
307 304 304 302 301 300 297 294 292 288 290 284 280 278 276 273 269 269 266 267 270 268 267 270 261 268 266 260 261 250 242 230
308 306 305 305 301 299 295 295 292 291 286 278 276 275 270 268 267 266 266 256 260 263 267 257 262 257 250 258 258 242 236 227
309 308 307 303 297 300 296 294 293 289 284 280 276 270 272 272 262 259 264 261 255 253 252 253 254 256 249 251 251 242 233 226
309 310 305 303 302 297 295 293 290 288 285 279 275 270 267 266 266 262 260 262 257 253 251 249 251 252 250 247 244 244 234 224
310 308 306 305 301 297 294 291 290 288 286 284 280 271 266 265 263 261 260 260 261 259 258 254 251 252 249 245 244 241 239 223
311 309 307 301 297 296 294 293 291 289 284 280 277 273 269 266 263 262 261 259 258 255 255 255 254 251 244 242 242 239 235 224
310 307 302 298 298 297 294 292 290 288 284 282 277 273 271 269 267 266 265 264 263 260 256 253 251 250 247 240 238 238 230 225
308 303 301 300 297 294 294 292 291 290 285 281 277 274 273 271 270 269 268 267 265 261 257 254 252 249 247 243 237 232 228 226
306 304 301 299 297 298 295 292 292 289 285 281 278 276 275 273 272 270 268 267 265 262 258 253 248 246 243 241 235 232 228 225
306 304 301 299 299 296 294 292 292 289 285 283 281 279 278 276 274 271 269 266 264 263 261 257 253 247 244 242 238 231 227 227
Height
10696 10693 10691 10688 10685 10680 10676 10673 10669 10666 10663 10661 10660 10656 10651 10646 10642 10643 10637 10632 10627 10626 10630 10627 10627 10622 10621 10621 10621 10625 10630 10627
10686 10684 10681 10678 10673 10667 10662 10656 10651 10647 10642 10638 10637 10635 10630 10625 10624 10621 10618 10612 10609 10608 10609 10606 10603 10602 10602 10605 10605 10607 10610 10611
10672 10670 10667 10664 10659 10653 10647 10641 10633 10625 10619 10615 10611 10610 10607 10606 10600 10599 10596 10589 10587 10588 10591 10587 10585 10583 10584 10586 10586 10586 10590 10593
10657 10655 10652 10648 10643 10635 10628 10622 10616 10607 10597 10590 10585 10583 10583 10584 10580 10573 10572 10568 10564 10563 10562 10564 10565 10562 10563 10563 10563 10565 10570 10575
10642 10636 10632 10628 10622 10617 10610 10604 10597 10588 10577 10567 10562 10554 10551 10554 10551 10549 10545 10545 10543 10540 10537 10537 10538 10538 10539 10540 10542 10545 10554 10561
10626 10620 10614 10608 10600 10592 10585 10576 10568 10560 10551 10542 10532 10525 10520 10518 10520 10522 10518 10518 10516 10516 10514 10513 10513 10514 10515 10518 10519 10525 10535 10538
10606 10598 10590 10583 10575 10566 10557 10547 10538 10530 10521 10513 10504 10498 10491 10488 10488 10488 10487 10488 10489 10487 10488 10489 10489 10490 10491 10493 10498 10502 10511 10517
10576 10566 10559 10552 10543 10534 10526 10515 10505 10496 10489 10477 10468 10460 10456 10452 10451 10453 10457 10460 10459 10456 10456 10460 10463 10466 10469 10472 10477 10480 10484 10494
10545 10534 10526 10519 10511 10499 10488 10477 10467 10454 10442 10434 10424 10418 10415 10413 10410 10413 10416 10419 10421 10427 10421 10423 10427 10432 10438 10439 10447 10455 10459 10470
10510 10499 10489 10480 10471 10460 10447 10439 10425 10411 10400 10385 10380 10375 10370 10372 10372 10371 10378 10385 10377 10383 10387 10390 10395 10401 10406 10412 10420 10430 10435 10447
10478 10463 10448 10434 10421 10411 10399 10386 10379 10363 10348 10342 10338 10332 10333 10332 10333 10337 10337 10348 10348 10355 10356 10364 10363 10376 10377 10383 10391 10403 10411 10420
10440 10423 10404 10387 10372 10357 10346 10337 10331 10317 10309 10300 10297 10295 10290 10291 10296 10303 10301 10305 10310 10316 10322 10327 10326 10336 10347 10355 10363 10372 10383 10392
10398 10379 10360 10342 10325 10309 10297 10289 10283 10274 10273 10270 10264 10259 10257 10257 10258 10263 10266 10265 10269 10274 10278 10285 10289 10300 10310 10321 10331 10339 10354 10365
10348 10332 10313 10298 10279 10265 10256 10249 10245 10239 10234 10228 10227 10228 10227 10227 10228 10231 10231 10232 10236 10238 10243 10249 10257 10265 10276 10286 10297 10309 10320 10335
10306 10288 10274 10257 10243 10231 10222 10216 10213 10211 10206 10201 10199 10196 10196 10197 10200 10200 10201 10202 10206 10209 10212 10217 10222 10229 10241 10249 10261 10275 10288 10304
10267 10251 10237 10223 10214 10203 10191 10188 10188 10186 10181 10177 10175 10174 10173 10173 10175 10176 10176 10176 10178 10182 10186 10190 10195 10199 10207 10218 10230 10245 10258 10267
10237 10218 10205 10194 10188 10175 10170 10164 10162 10162 10159 10157 10153 10152 10151 10150 10151 10153 10154 10155 10156 10158 10162 10165 10169 10174 10178 10187 10200 10214 10228 10239
10213 10195 10181 10171 10162 10156 10150 10144 10143 10142 10138 10136 10134 10133 10132 10131 10132 10134 10135 10135 10136 10137 10140 10144 10147 10153 10158 10164 10174 10187 10202 10212
10189 10176 10162 10152 10145 10140 10135 10126 10124 10123 10121 10119 10119 10117 10116 10115 10115 10116 10116 10117 10117 10118 10121 10125 10128 10133 10138 10144 10152 10163 10175 10188